Weather Roundup
Issued by NWS Chicago, IL

Home | Current Version | Previous Version | Graphics & Text | Print | Product List | Glossary On
Versions: 1 2 3 4 5 6 7 8 9 10 11 12 13 14 15 16 17 18 19 20 21 22 23 24 25 26 27 28 29 30 31 32 33 34 35 36 37 38 39 40 41 42 43 44 45 46 47 48 49 50
000
NZUS59 KLOT 231104
HRRLOT

CHICAGO AREA WEATHER ROUNDUP
NATIONAL WEATHER SERVICE CHICAGO/ROMEOVILLE IL
600 AM CDT MON OCT 23 2017

NOTE: "FAIR" INDICATES FEW OR NO CLOUDS BELOW 12,000 FEET WITH NO
SIGNIFICANT WEATHER AND/OR OBSTRUCTIONS TO VISIBILITY.

* THESE STATIONS ARE NOT UNDER NWS QUALITY CONTROL. THEY ALSO MAY NOT
  REPORT WEATHER SUCH AS PRECIPITATION OR FOG.

ILZ005-006-012>014-019>023-231200-
NORTHEAST ILLINOIS

CITY           SKY/WX    TMP DP  RH WIND       PRES   REMARKS
OHARE          LGT RAIN  51  49  92 N13       29.91F
MIDWAY         RAIN      52  51  97 N12       29.89F
AURORA         LGT RAIN  51  49  92 N8        29.92F
LANSING*       HVY RAIN  53  53 100 N12G22    29.87F
JOLIET*        LGT RAIN  52  52  99 N12       29.89S
WAUKEGAN       LGT RAIN  50  50 100 N6        29.91F
DUPAGE AIRPORT LGT RAIN  50  50 100 N13       29.90F
WHEELING       LGT RAIN  51  51 100 N9        29.92F
KANKAKEE*      RAIN      51  50  97 N9        29.88R
NORTHERLY ISL    N/A     53  50  89 NW15        N/A
$$

WIZ051-052-058>065-066-070>072-231200-
SOUTHEAST WISCONSIN

CITY           SKY/WX    TMP DP  RH WIND       PRES   REMARKS
MILWAUKEE      LGT RAIN  51  50  96 N5        29.93F
KENOSHA*       LGT RAIN  50  48  93 N5        29.94F
RACINE*        LGT RAIN  50  49  96 NW6       29.95F
WAUKESHA       MOCLDY    46  45  93 CALM      29.96R
WEST BEND      CLOUDY    45  45 100 CALM      29.94F FOG
$$

INZ001>003-010>013-019-020-231200-
NORTHWEST INDIANA

CITY           SKY/WX    TMP DP  RH WIND       PRES   REMARKS
GARY*          RAIN      55  54  94 N17G29    29.88F
MICHIGAN CITY* NOT AVBL
RENSSELAER*    NOT AVBL
VALPARAISO     RAIN      57  56  96 N9        29.85F FOG
$$

LMZ740>746-231200-
SOUTHERN LAKE MICHIGAN

STATION/POSITION TIME  SKY/WX   TEMP WIND        PRES    VSBY
                                AIR  DIR/SP/G
                 (UTC)          (F)  (DEG/KT/KT) (MB)    (MI)
HARRISON CRIB    1040            54  360/ 19/ 22   N/A
BURNHAM HARBOR   1100            53  330/ 12/ 18   N/A
CALUMET HARBOR   1030            53  340/ 15/ 20 1011.6F
BURNS HARBOR     1040            56   10/ 17/ 24 1011.5F
MICHIGAN CITY    1040            56   10/ 17/ 19   N/A
$$

ABBREVIATIONS USED IN REMARKS
   TC - TEMPERATURE IN CELSIUS
  WCI - WIND CHILL INDEX
   HX - HEAT INDEX
  VSB - VISIBILITY
$$




USA.gov is the U.S. government's official web portal to all federal, state and local government web resources and services.